Chezy-en-Orxois, France

11:13 AM CET on November 17, 2018 (GMT +0100)
Chezy-en-Orxois

Weather History for 07157 - September, 2004

Change the Weather History Date:

Thursday, September 2, 2004

  Actual Average Record
Temperature  
Mean Temperature 64 °F -  
Max Temperature 78 °F 67 °F - ()
Min Temperature 51 °F 52 °F - ()
Growing Degree Days 14 (Base 50)    
Moisture  
Dew Point 52 °F    
Average Humidity 64    
Maximum Humidity 88    
Minimum Humidity 36    
Precipitation  
Precipitation 0.00 in - - ()
Sea Level Pressure  
Sea Level Pressure 30.00 in    
Wind  
Wind Speed 5 mph ()    
Max Wind Speed 8 mph    
Max Gust Speed -    
Visibility 5.8 miles    
Events Rain    
T = Trace of Precipitation, MM = Missing Value Source: Averaged Metar Reports

Daily Weather History Graph

Daily Weather History Graph

Search for Another Location

Airport or City:

Astronomy

Sep. 02, 2004 Rise Set
Actual Time 7:08 AM CEST 8:29 PM CEST
Civil Twilight 6:35 AM CEST 9:02 PM CEST
Nautical Twilight 5:55 AM CEST 9:42 PM CEST
Astronomical Twilight 5:12 AM CEST 10:24 PM CEST
Moon 9:57 PM CEST (9/2) 10:59 AM CEST (9/2)
Length of Visible Light 14h 27m
Length of Day
13h 21m
Waning Gibbous, 87% of the Moon is Illuminated
Sep 2
Waning Gibbous
Sep 6
Last Quarter
Sep 14
New
Sep 21
First Quarter
Sep 28
Full

Hourly Weather History & Observations

Time (CEST) Temp. Dew Point Humidity Pressure Visibility Wind Dir Wind Speed Gust Speed Precip Events Conditions
12:00 AM 62.6 °F 48.2 °F 59% 30.01 in - East 8.1 mph - N/A   Clear
12:30 AM 60.8 °F 48.2 °F 63% 30.01 in - East 6.9 mph - N/A   Clear
1:00 AM 60.8 °F 50.0 °F 68% 30.01 in - East 6.9 mph - N/A   Clear
1:30 AM 59.0 °F 50.0 °F 72% 30.01 in - East 6.9 mph - N/A   Clear
2:00 AM 59.0 °F 50.0 °F 72% 30.01 in - East 8.1 mph - N/A   Clear
2:30 AM 59.0 °F 50.0 °F 72% 29.98 in - East 5.8 mph - N/A   Clear
3:00 AM 57.2 °F 48.2 °F 72% 29.98 in - ENE 5.8 mph - N/A   Clear
3:30 AM 55.4 °F 48.2 °F 77% 29.98 in - ENE 6.9 mph - N/A   Clear
4:00 AM 55.4 °F 50.0 °F 82% 29.98 in - ENE 5.8 mph - N/A   Clear
4:30 AM 55.4 °F 48.2 °F 77% 29.98 in - ENE 5.8 mph - N/A   Clear
5:00 AM 55.4 °F 48.2 °F 77% 29.98 in - NE 3.5 mph - N/A   Clear
5:30 AM 53.6 °F 48.2 °F 82% 29.98 in - ENE 4.6 mph - N/A   Clear
6:00 AM 53.6 °F 48.2 °F 82% 29.98 in - NE 3.5 mph - N/A   Clear
6:30 AM 53.6 °F 48.2 °F 82% 29.98 in - NNE 5.8 mph - N/A   Clear
7:00 AM 51.8 °F 48.2 °F 88% 29.98 in - NE 4.6 mph - N/A   Clear
7:30 AM 51.8 °F 48.2 °F 88% 29.98 in - NE 5.8 mph - N/A   Clear
8:00 AM 53.6 °F 48.2 °F 82% 29.98 in - NNE 3.5 mph - N/A   Clear
8:30 AM 53.6 °F 50.0 °F 88% 29.98 in - NE 5.8 mph - N/A   Clear
9:00 AM 57.2 °F 50.0 °F 77% 29.98 in - NE 4.6 mph - N/A   Clear
9:30 AM 59.0 °F 50.0 °F 72% 30.01 in - North - - N/A   Clear
10:00 AM 60.8 °F 51.8 °F 72% 30.01 in - ENE 3.5 mph - N/A   Clear
10:30 AM 62.6 °F 51.8 °F 68% 30.01 in - ENE 3.5 mph - N/A   Clear
11:00 AM 64.4 °F 53.6 °F 68% 29.98 in - NE 4.6 mph - N/A   Clear
11:30 AM 68.0 °F 53.6 °F 60% 29.98 in - NE 4.6 mph - N/A   Clear
12:00 PM 69.8 °F 53.6 °F 56% 30.01 in - East 4.6 mph - N/A   Clear
12:30 PM 71.6 °F 55.4 °F 57% 30.01 in - East 3.5 mph - N/A   Clear
1:00 PM 73.4 °F 51.8 °F 47% 30.01 in - Variable 4.6 mph - N/A   Clear
1:30 PM 75.2 °F 51.8 °F 44% 30.01 in - Variable 3.5 mph - N/A   Clear
2:00 PM 75.2 °F 51.8 °F 44% 30.01 in - SE 5.8 mph - N/A   Clear
2:30 PM 75.2 °F 51.8 °F 44% 30.01 in - ESE 6.9 mph - N/A   Clear
3:00 PM 77.0 °F 53.6 °F 44% 30.01 in - West 3.5 mph - N/A   Clear
3:30 PM 77.0 °F 51.8 °F 41% 29.98 in - West 4.6 mph - N/A   Clear
4:00 PM 77.0 °F 51.8 °F 41% 29.98 in - West 3.5 mph - N/A   Clear
4:30 PM 78.8 °F 51.8 °F 39% 29.98 in - West 4.6 mph - N/A   Clear
5:00 PM 78.8 °F 50.0 °F 36% 29.98 in - WNW 5.8 mph - N/A   Clear
5:30 PM 78.8 °F 50.0 °F 36% 30.01 in - West 4.6 mph - N/A   Clear
6:00 PM 77.0 °F 51.8 °F 41% 30.01 in - NW 5.8 mph - N/A   Clear
6:30 PM 75.2 °F 53.6 °F 47% 30.01 in - North 3.5 mph - N/A   Clear
7:00 PM 75.2 °F 53.6 °F 47% 30.01 in - North 4.6 mph - N/A   Clear
7:30 PM 73.4 °F 53.6 °F 50% 30.01 in - NNE 4.6 mph - N/A   Clear
8:00 PM 73.4 °F 53.6 °F 50% 30.04 in - NNE 3.5 mph - N/A   Clear
8:30 PM 73.4 °F 53.6 °F 50% 30.04 in 6.2 mi NNE 1.2 mph - N/A Rain Light Rain
9:00 PM 71.6 °F 55.4 °F 57% 30.06 in 6.2 mi South 4.6 mph - N/A Rain Light Rain
9:30 PM 69.8 °F 57.2 °F 64% 30.06 in 6.2 mi SW 8.1 mph - N/A Rain Light Rain
10:00 PM 66.2 °F 60.8 °F 83% 30.06 in 5.6 mi South 4.6 mph - N/A Rain Rain
10:30 PM 66.2 °F 59.0 °F 78% 30.06 in 4.3 mi East 6.9 mph - N/A Rain Light Rain
11:00 PM 66.2 °F 59.0 °F 78% 30.06 in 5.6 mi East 3.5 mph - N/A Rain Light Rain
11:30 PM 66.2 °F 59.0 °F 78% 30.06 in 6.2 mi ESE 4.6 mph - N/A Rain Light Rain